Wind_Speed
46 45 43 41 41 43 49 55 62 66 70 72 77 85 92 97 100 99 97 94 91 88 85 82 81 79 77 73 70 63 58 55 57 57 55 53 52 48
42 43 42 41 40 41 45 52 58 64 67 70 73 79 87 94 99 99 96 95 92 89 86 84 81 78 78 76 73 67 64 56 54 55 53 51 51 50
36 39 40 39 39 40 42 48 55 61 64 67 70 74 82 90 96 99 98 95 92 90 88 85 82 80 78 76 74 70 66 61 56 55 52 52 49 48
29 34 36 37 37 38 39 44 51 57 62 64 67 70 76 85 92 96 97 94 93 91 88 85 82 79 78 77 74 72 70 66 61 56 52 51 50 50
21 27 31 33 33 35 37 41 47 54 59 62 65 67 71 78 85 91 96 95 94 91 88 85 82 78 76 76 74 72 71 67 64 60 56 53 51 48
15 20 25 29 30 32 34 38 43 50 56 60 62 65 67 72 79 86 92 94 93 92 88 85 82 79 76 75 73 73 72 71 66 63 59 56 52 48
11 15 20 24 27 29 31 34 39 46 52 57 60 62 64 66 73 81 87 91 92 92 89 86 82 78 75 73 73 72 72 71 70 67 62 57 54 51
8 12 16 20 24 26 28 31 36 42 48 54 58 60 61 63 67 74 82 87 90 91 88 85 83 81 77 74 73 71 69 69 68 67 65 61 56 52
5 9 13 17 20 23 25 28 33 38 45 51 55 58 60 60 61 67 75 81 87 89 88 84 82 81 78 76 73 71 69 68 67 67 65 62 59 54
2 6 10 13 17 20 22 25 30 35 41 46 51 54 57 58 57 62 68 73 80 85 87 84 82 80 78 78 75 71 69 68 68 67 66 64 62 57
3 2 7 11 14 18 20 23 28 32 37 43 47 50 53 55 56 57 62 68 74 81 83 83 81 80 78 77 76 73 70 69 67 67 66 65 64 61
6 1 4 8 12 16 18 21 26 30 35 40 44 47 49 52 53 54 57 64 69 75 80 81 80 79 78 78 76 75 73 71 69 67 66 65 64 62
7 3 2 6 10 14 17 20 24 29 33 37 41 44 46 48 50 52 53 58 64 69 76 80 81 79 77 77 77 76 74 72 70 69 67 65 64 62
11 5 1 5 8 12 16 19 23 28 32 35 39 41 43 45 47 49 51 53 61 66 71 76 80 80 78 77 77 76 74 72 71 69 68 66 65 63
18 10 4 3 6 10 14 18 22 26 30 33 36 39 41 42 43 45 48 51 58 65 70 73 76 77 77 76 76 76 76 73 72 70 68 67 65 63
25 16 9 3 4 8 13 17 21 25 29 32 34 36 38 39 40 41 43 48 54 62 69 72 73 74 74 74 76 77 77 76 73 71 69 66 64 63
32 24 15 7 2 6 11 16 20 24 28 30 32 34 35 36 37 37 39 42 49 57 65 71 72 73 73 74 74 75 76 76 75 73 70 68 66 64
36 30 22 13 5 2 9 15 20 23 27 29 30 32 33 34 34 35 36 39 44 51 58 65 69 71 71 72 73 73 74 74 74 73 71 68 66 65
39 34 27 20 11 3 5 12 18 22 25 28 29 31 32 32 32 32 34 36 39 45 52 58 63 66 68 68 69 70 70 72 72 72 71 69 67 65
41 37 31 24 17 8 1 8 15 21 24 27 29 30 31 31 31 31 32 33 36 41 46 53 57 61 64 64 64 65 67 67 69 69 69 68 67 66
41 39 35 29 21 14 4 4 12 18 23 26 28 30 30 30 30 31 31 32 34 37 42 49 54 56 59 61 61 61 62 64 64 65 66 66 65 64
40 39 38 33 26 18 10 1 8 15 21 25 28 29 30 31 31 31 31 32 33 35 38 44 50 54 57 59 59 58 59 60 62 61 61 61 60 59
39 39 38 36 31 23 15 7 3 11 18 24 28 30 31 31 32 32 32 32 33 34 35 39 44 49 53 56 57 56 56 56 57 58 57 56 56 56
Wind_Direction
246 243 241 239 236 231 225 219 217 217 218 217 217 214 212 209 208 209 211 213 214 217 218 219 220 221 222 222 223 221 222 222 221 221 221 224 225 227
239 237 236 235 233 230 225 219 216 215 216 217 216 215 212 210 208 207 208 211 213 215 217 218 220 220 221 223 223 224 223 220 219 219 219 221 224 226
233 231 231 231 230 228 225 220 215 213 214 216 215 215 213 211 208 206 207 210 212 214 216 217 219 220 221 222 223 223 223 222 220 217 218 221 223 225
226 225 225 226 227 225 223 219 215 212 212 213 215 214 213 212 210 207 205 207 210 213 214 216 217 219 221 221 221 222 222 222 221 219 220 222 224 225
218 219 220 222 223 223 222 218 215 211 210 211 214 214 213 213 211 208 205 205 208 211 213 215 216 217 218 220 220 221 221 222 223 223 224 225 225 226
206 211 215 217 219 220 220 217 214 211 208 209 212 213 213 212 212 210 207 206 207 209 212 214 215 216 217 218 219 220 221 221 222 222 224 225 225 223
192 201 208 213 215 217 217 215 212 210 207 207 209 212 213 212 212 211 210 207 207 208 211 213 214 215 216 217 218 219 220 221 222 222 222 224 226 227
180 192 201 208 211 215 215 213 211 208 206 206 207 210 212 212 212 212 212 210 208 207 210 212 215 216 217 217 217 217 218 218 220 220 222 223 225 226
168 191 202 206 210 212 212 211 209 207 205 205 206 209 211 212 212 212 212 212 210 208 208 210 213 215 217 218 218 218 218 218 218 219 220 222 224 226
133 193 203 208 209 210 211 210 207 205 203 204 205 208 210 211 212 212 212 212 211 210 209 209 211 213 215 217 217 217 218 218 218 219 221 222 223 226
53 186 203 207 207 208 209 207 204 202 201 202 204 206 208 210 211 211 211 211 211 210 209 210 210 212 213 215 217 217 218 218 219 219 220 222 223 225
29 52 199 203 205 206 206 204 201 199 199 200 202 204 206 209 210 211 211 211 210 210 209 210 211 212 213 214 216 218 219 219 219 220 220 221 223 225
14 9 213 206 206 204 203 201 198 197 197 198 200 202 205 208 210 211 212 212 210 209 209 209 210 211 212 213 215 217 218 219 220 220 221 222 223 224
14 3 289 217 208 204 201 198 196 195 195 196 197 200 203 207 209 211 212 212 209 207 206 208 209 211 212 212 213 215 216 218 219 220 221 223 224 225
18 11 346 245 215 206 200 197 194 194 194 194 195 198 201 205 208 211 213 212 210 207 204 205 207 209 211 213 213 215 217 218 219 220 221 222 224 225
20 17 8 328 228 207 199 195 193 193 192 192 194 196 200 203 207 209 212 213 212 210 206 204 205 208 210 212 214 215 216 217 218 219 220 222 223 225
22 21 17 8 297 207 199 195 192 191 191 191 193 195 198 201 205 208 210 212 212 211 209 206 204 205 208 210 213 214 215 216 217 218 220 222 223 224
22 22 21 18 13 211 199 195 193 192 191 191 193 195 197 200 204 207 209 210 209 209 209 208 207 206 207 209 212 214 215 216 217 219 220 221 223 224
22 22 22 22 20 22 194 195 194 193 192 192 193 194 196 199 202 205 206 207 206 207 207 207 208 208 208 210 210 212 214 216 218 219 220 221 223 225
22 22 22 22 22 21 176 195 196 195 194 194 194 195 196 198 200 202 203 204 204 205 204 203 204 205 207 208 210 212 213 215 217 219 220 222 224 226
21 22 21 21 20 20 19 199 199 197 196 196 196 197 198 198 199 200 200 201 201 202 202 201 200 201 203 206 208 210 212 214 216 219 221 223 225 227
19 20 20 20 18 17 15 328 206 202 200 198 198 199 199 199 198 198 198 198 198 198 198 199 199 199 201 203 205 206 208 211 213 216 219 221 223 225
17 18 18 19 18 15 11 2 235 210 205 202 201 200 200 199 197 197 197 196 196 196 196 198 198 198 198 199 200 202 205 208 211 213 215 217 218 220
Height
5315 5323 5330 5337 5343 5350 5359 5370 5382 5394 5407 5420 5434 5452 5470 5490 5511 5531 5550 5568 5585 5601 5616 5631 5645 5659 5671 5682 5692 5701 5711 5720 5729 5739 5747 5755 5763 5770
5298 5308 5316 5324 5332 5339 5347 5357 5369 5381 5394 5407 5422 5437 5454 5473 5493 5514 5534 5553 5570 5586 5601 5617 5632 5645 5658 5670 5681 5691 5702 5710 5719 5728 5737 5745 5753 5760
5285 5295 5304 5313 5321 5329 5337 5346 5357 5370 5383 5396 5410 5424 5441 5458 5477 5498 5518 5538 5555 5571 5587 5603 5618 5632 5645 5658 5669 5681 5691 5701 5709 5718 5727 5736 5743 5751
5277 5286 5295 5304 5312 5320 5328 5336 5347 5359 5373 5386 5399 5413 5429 5445 5463 5483 5503 5522 5540 5557 5573 5589 5604 5618 5632 5644 5657 5669 5680 5690 5699 5708 5718 5726 5734 5741
5272 5280 5289 5297 5305 5313 5320 5328 5338 5350 5363 5376 5389 5403 5418 5433 5450 5468 5488 5507 5525 5543 5560 5576 5591 5605 5618 5632 5644 5657 5669 5681 5690 5699 5708 5717 5725 5733
5271 5277 5285 5293 5300 5307 5314 5322 5331 5342 5355 5368 5380 5394 5408 5423 5439 5455 5474 5492 5511 5529 5547 5562 5577 5591 5605 5619 5634 5646 5657 5669 5680 5690 5699 5708 5716 5724
5272 5277 5283 5289 5296 5302 5309 5316 5325 5335 5347 5360 5373 5385 5399 5414 5429 5444 5461 5479 5498 5516 5533 5549 5565 5580 5592 5606 5619 5632 5645 5657 5669 5680 5690 5699 5708 5716
5275 5279 5283 5288 5293 5300 5306 5313 5321 5330 5341 5353 5365 5378 5391 5405 5420 5434 5449 5467 5487 5505 5520 5535 5551 5565 5579 5593 5607 5620 5633 5645 5657 5669 5680 5690 5699 5707
5279 5281 5284 5288 5293 5298 5304 5310 5317 5325 5335 5347 5359 5371 5384 5399 5413 5428 5441 5455 5473 5490 5506 5523 5538 5552 5566 5581 5594 5608 5622 5634 5646 5658 5669 5680 5689 5697
5282 5283 5285 5289 5293 5297 5302 5308 5314 5322 5331 5343 5355 5367 5378 5391 5404 5417 5431 5445 5461 5477 5494 5511 5525 5539 5554 5568 5583 5597 5610 5623 5635 5646 5658 5669 5679 5688
5285 5285 5287 5289 5292 5297 5301 5307 5313 5320 5328 5338 5349 5361 5372 5385 5397 5410 5423 5437 5451 5466 5482 5498 5513 5527 5541 5556 5571 5585 5598 5611 5624 5636 5647 5658 5668 5677
5288 5288 5289 5290 5293 5296 5300 5305 5311 5318 5326 5335 5345 5356 5367 5379 5391 5403 5414 5428 5441 5455 5470 5486 5501 5515 5529 5544 5559 5573 5587 5600 5613 5624 5636 5647 5657 5667
5291 5290 5290 5291 5293 5296 5300 5304 5310 5316 5323 5332 5342 5352 5363 5374 5385 5396 5407 5419 5432 5445 5459 5474 5489 5503 5518 5533 5548 5562 5576 5589 5601 5613 5625 5636 5646 5657
5293 5292 5292 5292 5294 5296 5299 5303 5308 5314 5322 5330 5339 5348 5358 5369 5379 5389 5400 5410 5422 5434 5448 5463 5478 5493 5508 5522 5537 5551 5564 5577 5590 5602 5614 5625 5635 5645
5296 5294 5293 5293 5294 5296 5299 5303 5308 5313 5320 5327 5336 5345 5354 5364 5373 5383 5392 5402 5412 5424 5438 5453 5467 5482 5496 5511 5526 5539 5553 5565 5578 5591 5603 5614 5625 5636
5301 5297 5295 5294 5295 5297 5299 5303 5307 5313 5319 5326 5333 5342 5350 5359 5368 5377 5385 5394 5404 5415 5428 5442 5456 5471 5486 5500 5513 5526 5539 5553 5567 5580 5592 5603 5614 5624
5306 5301 5298 5296 5296 5297 5299 5303 5307 5312 5318 5324 5331 5339 5347 5355 5363 5371 5379 5387 5396 5406 5419 5432 5445 5460 5474 5488 5501 5514 5528 5542 5555 5568 5580 5591 5601 5611
5312 5306 5302 5299 5297 5298 5300 5302 5306 5311 5317 5323 5329 5336 5344 5351 5359 5366 5374 5381 5389 5399 5410 5422 5436 5450 5463 5476 5489 5503 5517 5531 5544 5556 5568 5579 5589 5599
5318 5312 5306 5302 5300 5299 5300 5302 5306 5310 5315 5321 5327 5334 5341 5348 5355 5362 5369 5376 5383 5392 5402 5413 5426 5440 5454 5468 5480 5493 5508 5521 5533 5545 5556 5567 5578 5587
5324 5317 5311 5306 5303 5301 5301 5303 5306 5310 5314 5320 5325 5332 5338 5345 5351 5358 5364 5371 5378 5386 5395 5406 5418 5431 5446 5459 5472 5485 5497 5510 5523 5534 5545 5555 5565 5575
5330 5323 5316 5311 5307 5304 5303 5303 5306 5309 5313 5318 5323 5329 5336 5342 5348 5354 5361 5367 5374 5382 5390 5400 5411 5423 5436 5449 5462 5474 5487 5499 5511 5523 5534 5544 5554 5564
5336 5329 5322 5315 5310 5307 5305 5304 5305 5308 5311 5316 5321 5327 5333 5339 5345 5351 5358 5364 5371 5378 5386 5395 5405 5415 5427 5440 5453 5465 5477 5489 5501 5511 5523 5535 5544 5555
5340 5333 5326 5320 5314 5310 5307 5305 5305 5307 5310 5314 5318 5324 5330 5336 5342 5349 5355 5362 5368 5375 5382 5390 5399 5409 5420 5432 5445 5457 5468 5480 5491 5502 5512 5522 5532 5541